Mercury, NV

4:45 PM PDT on July 27, 2017 (GMT -0700)
Mercury

Weather History for KDRA - September, 2012

Change the Weather History Date:

Friday, September 7, 2012

  Actual Average Record
Temperature  
Mean Temperature 84 °F 78 °F  
Max Temperature 97 °F 93 °F 102 °F (1979)
Min Temperature 72 °F 64 °F 49 °F (1985)
Degree Days  
Heating Degree Days 0    
Cooling Degree Days 20    
Growing Degree Days 34 (Base 50)    
Moisture  
Dew Point 48 °F    
Average Humidity 27    
Maximum Humidity 42    
Minimum Humidity 11    
Precipitation  
Precipitation 0.00 in 0.03 in 0.41 in (1980)
Month to date precipitation 0.13  
Year to date precipitation 4.10  
Sea Level Pressure  
Sea Level Pressure 29.89 in    
Wind  
Wind Speed 4 mph (NW)    
Max Wind Speed 10 mph    
Max Gust Speed -    
Visibility 10 miles    
Events      
T = Trace of Precipitation, MM = Missing Value Source: NWS Daily Summary

Daily Weather History Graph

Daily Weather History Graph

Search for Another Location

Airport or City:

Trip Planner

Search our weather history database for the weather conditions in past years. The results will help you decide how hot, cold, wet, or windy it might be!

Date:

Astronomy

Sep. 07, 2012 Rise Set
Actual Time 6:20 AM PDT 7:02 PM PDT
Civil Twilight 5:54 AM PDT 7:28 PM PDT
Nautical Twilight 5:23 AM PDT 7:59 PM PDT
Astronomical Twilight 4:51 AM PDT 8:31 PM PDT
Moon 11:13 PM PDT (9/7) 1:04 PM PDT (9/7)
Length of Visible Light 13h 34m
Length of Day
12h 42m
Waning Gibbous, 57% of the Moon is Illuminated
Sep 7
Waning Gibbous
Sep 8
Last Quarter
Sep 15
New
Sep 22
First Quarter
Sep 29
Full

Hourly Weather History & Observations

Time (PDT) Temp. Dew Point Humidity Pressure Visibility Wind Dir Wind Speed Gust Speed Precip Events Conditions
12:52 AM 81.0 °F 48.0 °F 31% 29.84 in 10.0 mi WNW 4.6 mph - N/A   Clear
1:52 AM 80.1 °F 48.0 °F 32% 29.84 in 10.0 mi Calm Calm - N/A   Clear
2:52 AM 79.0 °F 48.0 °F 34% 29.84 in 10.0 mi WNW 5.8 mph - N/A   Clear
3:52 AM 78.1 °F 48.0 °F 35% 29.85 in 10.0 mi NNW 5.8 mph - N/A   Clear
4:52 AM 75.0 °F 48.0 °F 38% 29.86 in 10.0 mi NNW 9.2 mph - N/A   Clear
5:52 AM 73.9 °F 48.0 °F 40% 29.89 in 10.0 mi North 4.6 mph - N/A   Clear
6:52 AM 73.0 °F 48.9 °F 42% 29.92 in 10.0 mi North 3.5 mph - N/A   Clear
7:52 AM 75.0 °F 50.0 °F 41% 29.94 in 10.0 mi Calm Calm - N/A   Clear
8:52 AM 84.0 °F 48.9 °F 29% 29.94 in 10.0 mi NNW 6.9 mph - N/A   Clear
9:52 AM 87.1 °F 48.9 °F 27% 29.95 in 10.0 mi NNW 6.9 mph - N/A   Clear
10:52 AM 88.0 °F 48.0 °F 25% 29.94 in 10.0 mi Calm Calm - N/A   Clear
11:52 AM 91.0 °F 48.0 °F 23% 29.92 in 10.0 mi West 8.1 mph - N/A   Clear
12:52 PM 93.0 °F 48.0 °F 21% 29.91 in 10.0 mi SSW 4.6 mph - N/A   Clear
1:52 PM 93.0 °F 48.0 °F 21% 29.89 in 10.0 mi Variable 3.5 mph - N/A   Clear
2:52 PM 93.9 °F 46.9 °F 20% 29.87 in 10.0 mi Calm Calm - N/A   Clear
3:52 PM 96.1 °F 46.9 °F 19% 29.85 in 10.0 mi Variable 6.9 mph - N/A   Clear
4:52 PM 95.0 °F 46.0 °F 19% 29.85 in 10.0 mi Calm Calm - N/A   Clear
5:52 PM 95.0 °F 45.0 °F 18% 29.85 in 10.0 mi SW 10.4 mph - N/A   Clear
6:52 PM 91.9 °F 44.1 °F 19% 29.85 in 10.0 mi WSW 6.9 mph - N/A   Clear
7:52 PM 88.0 °F 48.0 °F 25% 29.88 in 10.0 mi SE 4.6 mph - N/A   Mostly Cloudy
8:52 PM 86.0 °F 48.0 °F 27% 29.89 in 10.0 mi East 4.6 mph - N/A   Clear
9:52 PM 82.9 °F 48.0 °F 29% 29.89 in 10.0 mi ENE 3.5 mph - N/A   Clear
10:52 PM 81.0 °F 48.0 °F 31% 29.90 in 10.0 mi North 6.9 mph - N/A   Clear
11:52 PM 80.1 °F 46.9 °F 31% 29.90 in 10.0 mi Calm Calm - N/A   Clear